TimeEDT,TemperatureF,Dew PointF,Humidity,Sea Level PressureIn,VisibilityMPH,Wind Direction,Wind SpeedMPH,Gust SpeedMPH,PrecipitationIn,Events,Conditions,WindDirDegrees,DateUTC
12:53 AM,37.9,28.9,70,30.28,10.0,NNW,3.5,-,N/A,,Overcast,340,2013-03-29 04:53:00
1:53 AM,37.9,28.0,68,30.28,10.0,West,4.6,-,N/A,,Overcast,270,2013-03-29 05:53:00
2:53 AM,37.0,28.9,73,30.28,10.0,West,4.6,-,N/A,,Overcast,260,2013-03-29 06:53:00
3:53 AM,37.0,28.9,73,30.27,10.0,WSW,4.6,-,N/A,,Overcast,240,2013-03-29 07:53:00
4:53 AM,37.0,28.0,70,30.26,10.0,WSW,4.6,-,N/A,,Overcast,240,2013-03-29 08:53:00
5:53 AM,37.0,27.0,67,30.26,10.0,WSW,3.5,-,N/A,,Overcast,240,2013-03-29 09:53:00
6:53 AM,36.0,28.0,73,30.26,10.0,West,8.1,-,N/A,,Overcast,260,2013-03-29 10:53:00
7:53 AM,36.0,28.0,73,30.27,10.0,West,6.9,-,N/A,,Overcast,270,2013-03-29 11:53:00
8:53 AM,37.0,28.0,70,30.28,10.0,West,4.6,-,N/A,,Overcast,280,2013-03-29 12:53:00
9:53 AM,39.0,28.0,65,30.27,10.0,Variable,3.5,-,N/A,,Overcast,0,2013-03-29 13:53:00
10:53 AM,41.0,28.9,62,30.27,10.0,Calm,Calm,-,N/A,,Overcast,0,2013-03-29 14:53:00
11:53 AM,46.9,30.0,52,30.26,10.0,Calm,Calm,-,N/A,,Scattered Clouds,0,2013-03-29 15:53:00
12:53 PM,46.9,23.0,39,30.24,10.0,WNW,9.2,-,N/A,,Overcast,290,2013-03-29 16:53:00
1:53 PM,48.0,23.0,37,30.22,10.0,NW,9.2,-,N/A,,Overcast,310,2013-03-29 17:53:00
2:53 PM,50.0,21.0,32,30.19,10.0,WNW,10.4,-,N/A,,Overcast,300,2013-03-29 18:53:00
3:53 PM,48.9,21.0,33,30.18,10.0,Variable,4.6,-,N/A,,Overcast,0,2013-03-29 19:53:00
4:53 PM,48.9,18.0,29,30.17,10.0,West,8.1,17.3,N/A,,Mostly Cloudy,280,2013-03-29 20:53:00
5:53 PM,48.9,18.0,29,30.17,10.0,Variable,6.9,20.7,N/A,,Mostly Cloudy,0,2013-03-29 21:53:00
6:53 PM,48.0,19.0,32,30.18,10.0,NW,10.4,-,N/A,,Mostly Cloudy,320,2013-03-29 22:53:00
7:53 PM,46.9,19.9,34,30.19,10.0,WNW,5.8,-,N/A,,Overcast,300,2013-03-29 23:53:00
8:53 PM,45.0,21.0,39,30.20,10.0,NW,6.9,-,N/A,,Mostly Cloudy,320,2013-03-30 00:53:00
9:53 PM,43.0,21.9,43,30.22,10.0,NNW,9.2,-,N/A,,Mostly Cloudy,330,2013-03-30 01:53:00
10:53 PM,39.0,23.0,53,30.24,10.0,NNW,8.1,-,N/A,,Partly Cloudy,340,2013-03-30 02:53:00
11:53 PM,37.9,21.9,53,30.23,10.0,NNW,5.8,-,N/A,,Clear,340,2013-03-30 03:53:00